This demonstration page uses our WeatherBlox Daily Observations layout. Learn more.

Left ArrowRight Arrow

39.12711, -84.51439

Hourly Observations for December 4, 2018

Temp ( °F °C ) Dew Point ( °F °C ) Humidity (%) Winds ( mph kmh ) Pressure ( in mb ) Visibility ( mi km ) Precip ( " mm )
12:37 am 00:37 Cloudy with Mist and Fog 36 2.2 34 1.1 93 93 NW 6 9 30.12 1020 5 8 0.00 0.03
12:53 am 00:53 Cloudy with Light Rain 36 2.2 34 1.1 93 93 NW 8 13 30.13 1020 5 8 0.00 0.03
1:28 am 01:28 Cloudy 36 2.2 34 1.1 93 93 VRB 7 11 30.12 1020 10 16 0.00 0.03
1:36 am 01:36 Cloudy 36 2.2 34 1.1 93 93 NNW 9 15 30.12 1020 10 16 0.00 0.03
1:53 am 01:53 Cloudy 36 2.2 33 0.6 89 89 NNW 8 13 30.13 1020 10 16 0.00 0.03
2:02 am 02:02 Cloudy 36 2.2 33 0.6 89 89 N 8 13 30.12 1020 10 16 0.00 0.00
2:53 am 02:53 Cloudy 36 2.2 32 0 86 86 NW 3 6 30.15 1021 10 16 0.00 0.00
3:09 am 03:09 Cloudy 36 2.2 32 0 86 86 NNW 5 7 30.15 1021 10 16 0.00 0.00
3:53 am 03:53 Cloudy 36 2.2 32 0 86 86 NNW 6 9 30.16 1021 10 16 0.00 0.00
4:04 am 04:04 Cloudy 36 2.2 32 0 86 86 NNW 6 9 30.15 1021 10 16 0.00 0.00
4:42 am 04:42 Cloudy 36 2.2 32 0 86 86 NW 3 6 30.15 1021 10 16 0.00 0.00
4:53 am 04:53 Cloudy 36 2.2 32 0 86 86 NW 3 6 30.16 1022 10 16 0.00 0.00
5:53 am 05:53 Cloudy 36 2.2 32 0 86 86 NNW 6 9 30.17 1022 10 16 0.00 0.00
6:53 am 06:53 Cloudy 36 2.2 31 -0.6 82 82 NNW 6 9 30.19 1022 10 16 0.00 0.00
7:53 am 07:53 Cloudy 35 1.7 32 0 89 89 Calm 30.20 1023 10 16 0.00 0.00
8:53 am 08:53 Cloudy 36 2.2 32 0 86 86 NNE 6 9 30.21 1023 10 16 0.00 0.00
9:53 am 09:53 Cloudy 35 1.7 31 -0.6 85 85 NNE 5 7 30.22 1023 10 16 0.00 0.03
10:53 am 10:53 Cloudy 36 2.2 29 -1.7 76 76 NNE 8 13 30.21 1023 10 16 0.00 0.00
11:53 am 11:53 Cloudy 37 2.8 29 -1.7 73 73 NNE 8 13 30.19 1022 10 16 0.00 0.00
12:53 pm 12:53 Cloudy 36 2.2 29 -1.7 76 76 NW 8 13 30.17 1022 10 16 0.00 0.00
1:53 pm 13:53 Cloudy with Light Snow 35 1.7 29 -1.7 78 78 WNW 5 7 30.16 1022 10 16 0.00 0.03
2:53 pm 14:53 Cloudy 36 2.2 28 -2.2 73 73 VRB 3 6 30.15 1021 10 16 0.00 0.03
3:51 pm 15:51 Cloudy 36 2 28 -2 75 75 NNW 9 15 30.15 1021 10 16 0.00 0.03
3:53 pm 15:53 Cloudy 35 1.7 28 -2.2 76 76 NNW 9 15 30.16 1021 10 16 0.00 0.03
4:53 pm 16:53 Cloudy with Light Snow 34 1.1 27 -2.8 76 76 NW 7 11 30.18 1022 7 11 0.00 0.03
5:53 pm 17:53 Cloudy 34 1.1 26 -3.3 73 73 WNW 3 6 30.17 1022 10 16 0.00 0.03
6:53 pm 18:53 Cloudy 34 1.1 24 -4.4 67 67 WNW 6 9 30.18 1022 10 16 0.00 0.00
7:53 pm 19:53 Cloudy 34 1.1 24 -4.4 67 67 WNW 7 11 30.18 1022 10 16 0.00 0.00
8:53 pm 20:53 Cloudy 34 1.1 25 -3.9 70 70 W 3 6 30.16 1021 10 16 0.00 0.00
9:53 pm 21:53 Cloudy 34 1.1 26 -3.3 73 73 W 6 9 30.15 1021 10 16 0.00 0.00
10:53 pm 22:53 Cloudy 33 0.6 27 -2.8 78 78 W 7 11 30.15 1021 10 16 0.00 0.00
11:53 pm 23:53 Cloudy 33 0.6 28 -2.2 82 82 WSW 5 7 30.14 1021 10 16 0.00 0.00

Powered by AerisWeather